[[{"header":{"parameterUnit":"m.s-1","parameterCategory":1,"la1":30.2991,"la2":30.254,"lo1":-89.0895,"lo2":-89.0444,"dy":0.0017,"dx":0.0017,"nx":28,"ny":28,"refTime":"2024-02-04T09:00:00:Z","depth":0,"parameterNumber":2,"parameterNumberName":"U-component_of_WINDS"},"data":[0,0,0,0,0,0,0,0,0,0,0,0,0,0,0,0,0,0,0,0,0,0,0,0,0,0,0,0,0,0,0,0,0,0,0,0,0,0,0,0,0,0,0,0,0,0,0,0,0,0,0,0,0,0,0,0,0,0,-0.2379,-0.238,0,-0.2474,-0.2475,-0.2476,-0.2384,-0.2381,-0.2377,-0.2373,-0.2494,-0.25,-0.2507,0,0,0,0,0,0,0,0,0,0,0,0,0,-0.2145,-0.215,-0.2379,-0.238,-0.2381,-0.2474,-0.2475,-0.2476,-0.2385,-0.2381,-0.2376,-0.2372,-0.2491,-0.2499,-0.2507,0,0,0,0,0,0,0,0,0,0,0,0,0,-0.2245,-0.2151,-0.2378,-0.2346,-0.2344,-0.2473,-0.2475,-0.2477,-0.2386,-0.238,-0.2375,-0.237,-0.2489,-0.2498,-0.2508,-0.2681,0,0,-0.2539,-0.2543,0,0,0,0,0,0,0,0,-0.2239,-0.2253,-0.235,-0.2348,-0.2346,-0.2411,-0.2437,-0.2546,-0.2387,-0.2371,-0.2373,-0.2367,-0.2472,-0.2483,-0.2514,-0.2687,-0.2692,-0.254,-0.2546,-0.255,-0.2553,0,0,0,0,0,0,0,-0.2232,-0.2249,-0.2417,-0.2351,-0.2349,-0.2336,-0.2344,-0.2457,-0.2453,-0.2372,-0.2365,-0.2377,-0.247,-0.2505,-0.2516,-0.2694,-0.2539,-0.2548,-0.2554,-0.2558,-0.3026,-0.3032,0,0,0,0,0,0,-0.2226,-0.2244,-0.2414,-0.242,-0.2277,-0.2345,-0.2353,-0.2396,-0.2451,-0.2453,-0.2381,-0.2372,-0.249,-0.2505,-0.252,-0.273,-0.255,-0.2559,-0.2565,-0.3019,-0.3027,-0.3034,0,0,0,0,0,0,-0.2221,-0.2241,-0.241,-0.233,-0.235,-0.2354,-0.2404,-0.2401,-0.2434,-0.2457,-0.2459,-0.2415,-0.2486,-0.2506,-0.2643,-0.2733,-0.2564,-0.2573,-0.3012,-0.3022,-0.303,-0.315,0,0,0,0,0,0,-0.2214,-0.224,-0.2298,-0.2332,-0.2355,-0.2522,-0.2409,-0.2407,-0.2449,-0.2438,-0.2489,-0.2493,-0.2484,-0.2628,-0.2653,-0.2744,-0.2581,-0.3003,-0.3016,-0.3027,-0.3138,-0.3162,-0.3183,0,0,0,0,0,-0.2206,-0.2331,-0.2302,-0.2323,-0.2426,-0.2527,-0.2541,-0.2521,-0.2457,-0.252,-0.2537,-0.2491,-0.272,-0.2643,-0.2669,-0.2765,-0.2998,-0.3013,-0.3027,-0.3128,-0.3157,-0.3183,0,0,0,0,0,0,-0.2313,-0.2334,-0.2302,-0.2439,-0.2482,-0.2511,-0.2589,-0.2553,-0.2619,-0.2607,-0.2587,-0.26,-0.2745,-0.277,-0.2683,-0.2942,-0.285,-0.2871,-0.2918,-0.2947,-0.2969,-0.2959,-0.2589,0,0,0,0,0,-0.2352,-0.2424,-0.2442,-0.2563,-0.2585,-0.2585,-0.2628,-0.2609,-0.2655,-0.2674,-0.27,-0.2754,-0.2839,-0.2895,-0.2974,-0.3144,-0.3158,-0.3224,-0.3247,-0.3266,-0.3283,-0.3383,-0.3415,-0.3081,-0.3081,-0.3081,0,0,-0.2434,-0.2455,-0.2502,-0.2585,-0.2615,-0.2699,-0.26,-0.2691,-0.2756,-0.2691,-0.2818,-0.2843,-0.2903,-0.3058,-0.3128,-0.3083,-0.338,-0.3284,-0.3299,-0.3306,-0.3402,-0.3433,-0.3461,-0.3091,-0.3089,-0.3088,0,0,-0.2626,-0.2646,-0.275,-0.2784,-0.283,-0.283,-0.2857,-0.2894,-0.2905,-0.3033,-0.2988,-0.3072,-0.3215,-0.3261,-0.3304,-0.3526,-0.349,-0.3554,-0.3672,-0.377,-0.3796,-0.382,-0.3903,-0.3933,-0.3572,-0.3573,-0.3573,0,-0.2723,-0.2838,-0.2811,-0.2906,-0.2948,-0.289,-0.3001,-0.3038,-0.3112,-0.3146,-0.3094,-0.3279,-0.3315,-0.3484,-0.3539,-0.3574,-0.3611,-0.3545,-0.3793,-0.3816,-0.3838,-0.3918,-0.3949,-0.358,-0.3579,-0.3578,-0.3578,0,-0.2959,-0.3041,-0.3122,-0.3187,-0.324,-0.3343,-0.3341,-0.34,-0.3381,-0.3391,-0.353,-0.3572,-0.3661,-0.3702,-0.3686,-0.3873,-0.3844,-0.3794,-0.3701,-0.3877,-0.3952,-0.3982,-0.3591,-0.3588,-0.3586,-0.3584,0,0,-0.3211,-0.3265,-0.3296,-0.3328,-0.338,-0.3448,-0.3557,-0.3637,-0.369,-0.3748,-0.3842,-0.3971,-0.3927,-0.3976,-0.3967,-0.4053,-0.4234,-0.3994,-0.3995,-0.4038,-0.4451,-0.4487,-0.4521,-0.4212,-0.4218,-0.4222,-0.4447,0,-0.3405,-0.3578,-0.3563,-0.3733,-0.3814,-0.3767,-0.3862,-0.3911,-0.3926,-0.4006,-0.4028,-0.4119,-0.4052,-0.4082,-0.4166,-0.4193,-0.4316,-0.4178,-0.4308,-0.4312,-0.429,-0.456,-0.4596,-0.4804,-0.4475,-0.448,-0.4484,0,-0.365,-0.371,-0.3886,-0.3933,-0.3967,-0.405,-0.4129,-0.4203,-0.4263,-0.427,-0.4329,-0.4309,-0.443,-0.4338,-0.4509,-0.4415,-0.4471,-0.4495,-0.4503,-0.4512,-0.4406,-0.4578,-0.487,-0.4901,-0.4529,-0.4525,-0.4522,0,-0.3819,-0.3946,-0.4068,-0.4098,-0.4155,-0.4217,-0.4245,-0.4299,-0.4352,-0.4426,-0.4463,-0.4553,-0.4602,-0.4679,-0.4688,-0.4619,-0.4864,-0.4771,-0.488,-0.488,-0.4929,-0.4925,-0.5235,-0.4967,-0.4967,-0.4966,-0.4966,0,-0.4034,-0.4145,-0.4145,-0.422,-0.4347,-0.4335,-0.4465,-0.4489,-0.4539,-0.4627,-0.4597,-0.4683,-0.469,-0.4783,-0.4794,-0.4938,-0.4962,-0.4977,-0.4978,-0.4978,-0.4976,-0.5011,-0.4997,-0.4975,-0.4973,-0.4971,-0.497,0,-0.424,-0.4243,-0.4375,-0.442,-0.4435,-0.4527,-0.457,-0.4649,-0.4665,-0.4778,-0.4805,-0.4834,-0.4941,-0.496,-0.5089,-0.5097,-0.527,-0.5258,-0.5247,-0.5245,-0.5353,-0.5343,-0.5694,-0.5742,-0.5444,-0.5447,-0.5449,0,-0.4375,-0.4459,-0.4513,-0.4566,-0.4596,-0.4683,-0.4737,-0.4735,-0.4795,-0.4875,-0.4947,-0.505,-0.5131,-0.531,-0.5349,-0.5451,-0.5441,-0.5558,-0.5456,-0.5456,-0.5445,-0.5439,-0.545,-0.5576,-0.5579,-0.5582,-0.5584,0,-0.4617,-0.4617,-0.469,-0.4769,-0.4833,-0.4897,-0.4957,-0.5006,-0.5014,-0.5085,-0.5191,-0.5255,-0.5387,-0.5494,-0.5597,-0.5639,-0.5617,-0.5617,-0.5648,-0.5647,-0.5637,-0.5646,-0.5299,-0.5607,-0.5605,-0.5603,-0.5602,-0.5601,-0.4792,-0.4866,-0.4916,-0.5004,-0.5049,-0.5108,-0.5185,-0.5212,-0.5297,-0.5398,-0.5397,-0.5516,-0.5588,-0.5723,-0.5773,-0.5875,-0.5838,-0.5882,-0.5893,-0.5904,-0.5915,-0.5624,-0.5894,-0.5894,-0.5893,-0.5893,-0.5892,0,-0.5032,-0.5064,-0.5144,-0.5227,-0.53,-0.5267,-0.5336,-0.5401,-0.5503,-0.5568,-0.565,-0.5779,-0.5886,-0.5937,-0.6045,-0.6118,-0.6112,-0.6147,-0.6141,-0.6153,-0.594,-0.5902,-0.6151,-0.6151,-0.6151,-0.6151,-0.6151,-0.615,-0.5164,-0.5289,-0.5297,-0.545,-0.5485,-0.5594,-0.5637,-0.5697,-0.5748,-0.589,-0.5976,-0.6007,-0.6071,-0.6186,-0.6287,-0.6301,-0.6344,-0.6384,-0.6394,-0.6193,-0.6166,-0.6141,-0.6106,-0.6393,-0.6394,-0.6598,-0.66,-0.6601]},{"header":{"parameterUnit":"m.s-1","parameterCategory":1,"la1":30.2991,"la2":30.254,"lo1":-89.0895,"lo2":-89.0444,"dy":0.0017,"dx":0.0017,"nx":28,"ny":28,"refTime":"2024-02-04T09:00:00:Z","depth":0,"parameterNumber":3,"parameterNumberName":"V-component_of_WINDS"},"data":[0,0,0,0,0,0,0,0,0,0,0,0,0,0,0,0,0,0,0,0,0,0,0,0,0,0,0,0,0,0,0,0,0,0,0,0,0,0,0,0,0,0,0,0,0,0,0,0,0,0,0,0,0,0,0,0,0,0,-0.4359,-0.4356,0,-0.4109,-0.4106,-0.4104,-0.3972,-0.3972,-0.3972,-0.3971,-0.3711,-0.3704,-0.3698,0,0,0,0,0,0,0,0,0,0,0,0,0,-0.4716,-0.471,-0.4359,-0.4356,-0.4353,-0.411,-0.4106,-0.4103,-0.3972,-0.3972,-0.3972,-0.3971,-0.3713,-0.3705,-0.3697,0,0,0,0,0,0,0,0,0,0,0,0,0,-0.4523,-0.4708,-0.436,-0.4259,-0.4247,-0.411,-0.4106,-0.4102,-0.3972,-0.3972,-0.3972,-0.3971,-0.3716,-0.3706,-0.3696,-0.364,0,0,-0.3665,-0.3661,0,0,0,0,0,0,0,0,-0.4534,-0.451,-0.4277,-0.4265,-0.4252,-0.4072,-0.4136,-0.3947,-0.3972,-0.4076,-0.3971,-0.3971,-0.3831,-0.3811,-0.3765,-0.3627,-0.3616,-0.3664,-0.3658,-0.3654,-0.3651,0,0,0,0,0,0,0,-0.4548,-0.452,-0.426,-0.4273,-0.4258,-0.4223,-0.4195,-0.41,-0.3958,-0.4067,-0.4057,-0.403,-0.3824,-0.3775,-0.3758,-0.3612,-0.3664,-0.3655,-0.3649,-0.3645,-0.3412,-0.3411,0,0,0,0,0,0,-0.4578,-0.4532,-0.4268,-0.4253,-0.4395,-0.4217,-0.4186,-0.413,-0.3959,-0.3933,-0.403,-0.4024,-0.3792,-0.377,-0.3748,-0.3669,-0.3654,-0.3644,-0.3638,-0.3412,-0.3411,-0.3411,0,0,0,0,0,0,-0.4586,-0.4556,-0.4278,-0.4389,-0.4351,-0.4211,-0.4149,-0.4125,-0.4076,-0.3931,-0.3904,-0.4007,-0.3791,-0.3762,-0.3667,-0.3658,-0.364,-0.363,-0.3412,-0.3412,-0.3411,-0.3511,0,0,0,0,0,0,-0.4597,-0.456,-0.4539,-0.439,-0.4346,-0.4204,-0.4149,-0.412,-0.4059,-0.405,-0.3902,-0.3877,-0.3789,-0.3683,-0.3657,-0.3644,-0.3623,-0.3412,-0.3412,-0.3411,-0.3508,-0.3514,-0.352,0,0,0,0,0,-0.4611,-0.4577,-0.4539,-0.4508,-0.4318,-0.4204,-0.4178,-0.4079,-0.4059,-0.4036,-0.3942,-0.3882,-0.3663,-0.3674,-0.3644,-0.3627,-0.3412,-0.3412,-0.3412,-0.3505,-0.3513,-0.352,0,0,0,0,0,0,-0.4728,-0.4556,-0.4511,-0.4429,-0.4332,-0.4182,-0.415,-0.4091,-0.3997,-0.3991,-0.387,-0.3838,-0.3753,-0.368,-0.3696,-0.3562,-0.3531,-0.3525,-0.3613,-0.3619,-0.3625,-0.3644,-0.3614,0,0,0,0,0,-0.4744,-0.4668,-0.4521,-0.4462,-0.4416,-0.4291,-0.4238,-0.417,-0.4064,-0.4022,-0.3921,-0.3819,-0.3726,-0.3669,-0.3576,-0.3496,-0.346,-0.347,-0.3476,-0.3481,-0.3477,-0.3426,-0.3428,-0.341,-0.341,-0.341,0,0,-0.4777,-0.4673,-0.4633,-0.4483,-0.44,-0.4321,-0.4258,-0.4178,-0.4118,-0.4009,-0.3913,-0.3835,-0.3713,-0.3625,-0.358,-0.3561,-0.3474,-0.3481,-0.3486,-0.3479,-0.3426,-0.3428,-0.3429,-0.341,-0.341,-0.341,0,0,-0.4797,-0.4712,-0.4652,-0.457,-0.4445,-0.4362,-0.4348,-0.4205,-0.4149,-0.4051,-0.3967,-0.3892,-0.3737,-0.3652,-0.3589,-0.3573,-0.3512,-0.3545,-0.3576,-0.3528,-0.3529,-0.353,-0.3522,-0.3521,-0.3542,-0.3542,-0.3542,0,-0.4853,-0.4734,-0.4629,-0.4553,-0.4489,-0.4387,-0.4324,-0.4248,-0.4099,-0.4055,-0.4036,-0.3837,-0.3747,-0.3636,-0.3632,-0.3585,-0.3562,-0.3562,-0.3538,-0.3538,-0.3536,-0.3528,-0.3525,-0.3547,-0.3546,-0.3546,-0.3545,0,-0.4808,-0.4726,-0.4692,-0.4552,-0.4483,-0.4414,-0.4296,-0.4239,-0.4175,-0.4093,-0.3992,-0.3881,-0.3763,-0.3731,-0.3668,-0.361,-0.3601,-0.3562,-0.3528,-0.3545,-0.3534,-0.353,-0.3554,-0.3552,-0.355,-0.3549,0,0,-0.4897,-0.4697,-0.4687,-0.462,-0.4473,-0.4406,-0.4331,-0.4216,-0.4168,-0.4067,-0.3999,-0.3868,-0.383,-0.3758,-0.3684,-0.3642,-0.3633,-0.3606,-0.3602,-0.3614,-0.3558,-0.3589,-0.3587,-0.3592,-0.3591,-0.359,-0.3568,0,-0.4896,-0.4759,-0.466,-0.456,-0.4481,-0.4381,-0.4315,-0.4216,-0.4136,-0.4055,-0.3966,-0.3875,-0.3832,-0.3787,-0.3741,-0.3645,-0.362,-0.3645,-0.3525,-0.3523,-0.356,-0.3582,-0.3615,-0.36,-0.3564,-0.3563,-0.3562,0,-0.4877,-0.478,-0.4672,-0.453,-0.4493,-0.4436,-0.4321,-0.4246,-0.413,-0.4074,-0.3993,-0.3916,-0.3829,-0.3803,-0.3679,-0.3698,-0.3643,-0.3587,-0.3584,-0.3569,-0.3544,-0.3567,-0.3593,-0.359,-0.3555,-0.3556,-0.3556,0,-0.4951,-0.4793,-0.4707,-0.4654,-0.4487,-0.4448,-0.4376,-0.426,-0.4196,-0.4094,-0.4051,-0.394,-0.3879,-0.3794,-0.3688,-0.3679,-0.3574,-0.354,-0.3523,-0.3526,-0.3506,-0.3509,-0.3523,-0.3472,-0.3472,-0.3472,-0.3472,0,-0.496,-0.4898,-0.4739,-0.4686,-0.4612,-0.4497,-0.4426,-0.4345,-0.4242,-0.4169,-0.4075,-0.4008,-0.3873,-0.3789,-0.3705,-0.3614,-0.3588,-0.3538,-0.3517,-0.3547,-0.3553,-0.3509,-0.3507,-0.3471,-0.3472,-0.3472,-0.3472,0,-0.5032,-0.4923,-0.4823,-0.4672,-0.4632,-0.4584,-0.4453,-0.4396,-0.431,-0.4219,-0.4191,-0.4056,-0.3951,-0.3837,-0.3695,-0.3638,-0.3551,-0.352,-0.3591,-0.3579,-0.3568,-0.357,-0.3554,-0.3545,-0.3502,-0.3502,-0.3503,0,-0.5045,-0.4995,-0.4838,-0.4783,-0.4714,-0.4627,-0.4561,-0.4444,-0.4379,-0.4241,-0.42,-0.4089,-0.3994,-0.3831,-0.3718,-0.3607,-0.3573,-0.3574,-0.3555,-0.3586,-0.3571,-0.3575,-0.3568,-0.3581,-0.3582,-0.3583,-0.3583,0,-0.5079,-0.5027,-0.4937,-0.4826,-0.475,-0.4657,-0.456,-0.452,-0.4383,-0.4314,-0.4207,-0.4133,-0.3986,-0.3876,-0.375,-0.3673,-0.3604,-0.359,-0.358,-0.361,-0.3652,-0.3628,-0.3606,-0.3591,-0.359,-0.359,-0.3589,-0.3589,-0.5121,-0.507,-0.4952,-0.4853,-0.4767,-0.4678,-0.4616,-0.4522,-0.4431,-0.4304,-0.4239,-0.4132,-0.4012,-0.3837,-0.3761,-0.3672,-0.3651,-0.3638,-0.3634,-0.3632,-0.3639,-0.3667,-0.3649,-0.3649,-0.3648,-0.3648,-0.3648,0,-0.515,-0.5067,-0.4978,-0.4845,-0.4766,-0.4709,-0.4597,-0.4534,-0.4442,-0.4336,-0.4244,-0.4118,-0.401,-0.3887,-0.377,-0.3723,-0.3688,-0.3696,-0.3698,-0.368,-0.3666,-0.3686,-0.3726,-0.3726,-0.3726,-0.3726,-0.3726,-0.3726,-0.5155,-0.5066,-0.4999,-0.4865,-0.4781,-0.4677,-0.4618,-0.4533,-0.4448,-0.4313,-0.4222,-0.4143,-0.4029,-0.3902,-0.3799,-0.3765,-0.3725,-0.3742,-0.37,-0.3688,-0.3682,-0.3676,-0.3694,-0.3735,-0.3735,-0.3721,-0.3721,-0.3721]}]]